Wind_Speed
8 9 10 9 10 11 11 10 11 12 12 11 10 10 10 11 11 11 11 11 11 11 10 9 7 7 6 5 5 4 3 2 1 1 0 0 1 2 3 4 5 6 6 7
7 8 8 8 8 10 10 10 10 10 11 10 10 11 11 11 11 11 11 11 11 10 10 9 8 7 6 5 5 4 3 2 2 1 1 1 1 2 2 3 4 5 6 6
6 7 7 7 7 8 8 8 8 8 9 10 10 10 11 10 10 11 12 12 12 11 10 10 9 8 7 6 6 5 4 3 2 2 2 2 2 1 2 3 4 5 5 6
6 6 6 6 7 7 6 7 7 6 7 9 10 10 10 10 9 10 11 12 13 12 11 10 9 8 7 7 7 6 5 4 4 3 3 3 3 2 1 2 3 4 5 5
5 5 5 6 6 7 6 7 7 6 7 8 8 8 8 9 9 9 9 11 12 12 11 10 9 8 8 8 7 6 6 6 5 4 4 3 4 3 2 2 2 3 4 5
5 5 6 6 7 7 7 7 8 8 7 7 7 7 7 7 8 9 9 10 11 12 11 10 10 9 8 8 8 7 7 6 6 5 4 4 4 4 3 3 2 2 3 3
5 6 7 7 6 6 6 6 7 7 7 6 6 6 5 5 6 7 8 9 11 11 11 10 10 9 9 8 8 7 7 6 6 6 5 5 4 4 4 4 4 3 3 3
6 6 6 6 6 5 6 7 7 6 6 6 6 6 5 5 4 6 8 9 10 10 11 11 10 9 8 8 8 7 7 7 7 6 6 5 5 5 5 5 5 5 4 4
6 6 6 6 6 6 6 7 6 6 5 5 6 6 5 5 5 6 6 9 9 9 10 10 9 8 8 8 8 7 7 7 7 7 7 6 6 6 6 6 6 5 5 5
5 6 6 6 6 7 7 7 7 6 5 6 6 6 6 5 5 5 6 7 8 8 8 9 9 9 8 8 8 8 8 7 8 8 7 7 7 7 7 7 7 6 6 6
4 5 6 6 7 7 9 7 7 6 5 5 4 5 5 5 5 4 5 7 7 8 8 9 9 9 9 9 9 9 8 8 8 8 8 8 8 8 8 8 8 8 7 7
5 5 5 6 7 7 8 7 6 6 5 5 4 4 5 5 5 5 6 7 7 8 8 9 9 9 9 10 10 10 9 9 9 9 9 9 9 9 9 8 8 9 9 8
6 5 6 7 7 7 8 7 6 7 7 6 6 5 5 5 5 5 6 7 8 8 9 9 10 10 11 11 11 11 10 10 9 9 10 10 10 10 9 9 8 9 9 9
7 7 7 7 7 7 8 8 8 8 7 7 7 7 7 6 6 6 6 6 7 8 9 10 11 11 11 12 12 11 11 11 10 10 10 10 10 10 9 9 9 9 9 9
9 8 8 8 8 8 8 8 8 8 7 7 7 8 8 8 7 7 7 7 7 8 10 11 11 12 12 12 12 12 12 11 11 11 10 10 10 10 10 10 10 10 10 11
11 10 9 9 9 9 9 8 9 9 8 9 9 10 10 9 9 8 8 8 8 9 10 10 11 12 12 13 13 13 13 12 12 12 11 11 12 12 11 11 11 11 11 12
12 12 11 11 11 11 10 10 10 10 10 10 10 10 11 10 9 9 9 9 9 9 9 10 12 13 13 13 13 13 13 13 13 13 12 12 12 12 13 13 12 12 13 13
13 14 14 14 13 13 11 11 11 11 10 11 10 10 10 10 10 10 11 11 11 11 10 11 12 13 14 14 14 14 14 13 14 14 14 13 13 14 14 15 15 15 15 15
16 16 16 16 16 14 13 13 13 12 12 12 11 11 11 11 12 12 12 12 12 12 12 12 13 13 14 14 14 14 14 14 14 15 15 15 15 15 15 16 16 17 17 17
18 18 18 18 18 16 14 14 15 15 14 12 11 11 11 12 13 13 13 13 13 13 13 13 13 13 14 14 14 15 15 15 16 16 17 17 17 17 17 18 18 18 19 19
20 20 20 19 19 17 16 16 15 15 13 12 12 12 12 12 13 14 14 14 14 14 14 14 14 14 14 15 15 16 16 17 17 18 18 18 18 19 19 19 20 20 20 21
21 21 20 20 20 18 17 17 17 15 15 14 14 13 13 13 14 15 15 16 16 16 15 15 15 15 15 15 16 16 17 18 18 19 19 19 20 20 21 21 21 22 23 23
23 22 22 22 20 19 18 18 18 17 17 16 15 15 15 16 16 16 16 16 17 17 17 17 16 16 16 16 17 17 18 19 20 21 21 21 22 22 23 23 24 24 25 25
24 24 24 23 22 22 21 21 20 19 18 17 17 17 17 17 17 17 17 18 18 19 19 19 18 19 19 19 20 20 20 21 22 22 23 24 24 25 25 26 27 27 28 28
25 25 25 25 24 24 24 23 22 21 20 20 20 20 20 20 20 20 19 19 20 20 20 20 20 20 21 21 21 21 22 23 23 24 25 25 26 27 28 28 29 30 31 32
26 27 27 27 26 26 26 25 25 24 24 23 22 22 22 22 22 22 21 21 21 22 22 23 23 23 23 23 23 24 24 25 25 26 27 28 28 29 30 31 32 33 34 35
Wind_Direction
171 181 188 194 196 198 193 186 182 185 189 194 199 197 197 195 190 188 187 189 192 194 195 196 198 202 202 202 201 198 202 199 194 189 191 17 12 11 16 21 17 13 15 21
163 170 178 187 190 193 200 197 185 185 189 199 202 198 196 194 193 194 191 191 197 196 197 199 199 205 208 213 217 215 213 212 213 224 238 273 321 347 10 20 18 15 21 23
164 164 170 176 181 189 196 199 188 185 184 193 194 195 195 200 203 201 200 199 197 196 199 202 205 213 216 224 224 224 226 220 232 248 260 267 281 310 357 17 19 20 25 28
154 168 172 175 184 187 189 192 190 192 177 179 185 185 193 204 204 202 199 197 197 200 204 210 211 213 220 226 229 228 230 232 236 243 256 257 257 268 311 1 13 20 24 25
148 155 160 165 175 182 174 173 177 176 175 176 185 188 190 200 199 195 197 195 198 202 205 209 212 216 221 227 230 234 237 238 237 240 247 250 254 258 275 310 345 360 14 21
145 148 151 150 156 163 154 162 165 166 165 178 184 193 185 192 193 198 202 202 204 206 207 212 215 220 225 228 233 239 237 234 234 235 236 245 259 262 260 273 297 328 348 2
153 155 158 157 155 161 158 163 170 171 175 176 178 187 184 190 198 201 206 207 207 207 209 212 216 222 228 234 237 238 231 228 232 235 234 241 253 266 270 269 274 284 304 321
165 160 158 157 161 174 172 166 175 178 169 163 170 171 172 189 196 200 202 200 203 208 210 212 218 224 229 234 234 232 231 230 235 237 237 241 251 264 271 273 273 273 282 290
164 160 161 160 166 177 185 187 187 181 175 170 169 164 168 189 197 194 195 199 201 207 210 212 220 223 226 230 230 230 233 233 234 236 240 245 255 264 266 270 275 276 277 278
157 165 165 169 176 183 181 177 184 184 175 167 164 166 167 179 189 194 199 203 208 210 215 219 224 228 230 229 233 237 235 236 239 242 246 250 257 261 265 270 270 267 266 268
169 167 169 173 175 182 183 184 185 186 188 188 182 175 184 187 191 199 208 205 207 214 213 217 229 234 236 236 237 237 235 240 245 247 251 255 259 261 269 271 266 263 264 267
190 184 186 188 185 183 193 200 204 208 210 216 218 199 199 206 210 218 217 217 218 219 219 223 230 234 238 239 238 236 237 242 247 251 256 259 260 263 270 271 266 264 264 268
208 205 204 201 198 197 199 203 213 224 226 235 238 228 225 226 226 230 227 225 225 225 224 229 234 238 240 243 243 239 241 245 251 255 258 260 263 264 266 270 270 263 264 269
217 215 212 214 214 209 207 207 219 228 236 244 246 246 246 247 243 243 245 242 235 231 230 231 235 242 245 246 245 243 244 248 251 254 258 260 262 264 264 270 271 266 265 267
219 221 222 223 221 215 215 217 225 234 243 248 247 252 253 253 257 255 253 250 246 243 239 236 239 245 248 249 248 245 247 249 249 251 254 257 262 265 266 267 266 264 264 267
224 227 228 224 223 224 222 227 230 237 245 251 253 257 259 255 253 254 252 249 246 248 245 243 245 246 248 250 249 248 249 248 249 252 255 258 263 266 266 265 263 264 266 271
229 230 230 229 231 235 234 239 242 247 251 256 258 258 260 257 255 254 252 249 249 253 252 251 249 247 247 249 250 250 248 248 249 253 257 261 264 267 267 266 265 267 269 273
233 233 234 236 237 240 241 241 244 247 254 258 258 258 259 260 260 257 255 255 257 259 260 257 253 251 249 250 251 251 251 251 252 254 259 263 265 268 269 267 267 270 273 274
237 238 239 240 241 242 242 244 246 250 256 260 261 262 260 258 258 259 259 257 258 259 258 257 256 253 252 252 252 252 254 256 256 257 260 262 266 268 268 269 269 271 273 276
239 239 241 242 244 244 243 245 248 251 255 262 265 266 262 259 258 258 258 257 256 258 258 258 257 256 254 253 253 253 255 258 259 260 262 264 266 268 269 270 271 272 274 276
239 241 242 244 246 246 245 246 250 254 261 263 265 266 264 261 260 259 258 258 258 259 260 259 259 259 257 256 256 256 258 260 262 263 264 266 267 268 270 271 272 274 276 277
242 244 244 245 247 249 249 251 254 258 260 263 264 264 263 262 261 261 261 261 261 259 258 259 260 259 259 258 258 259 260 261 263 265 266 267 268 268 270 272 273 275 276 277
244 245 246 248 250 250 250 254 256 258 260 262 264 264 264 263 263 262 263 263 262 261 260 259 260 262 262 264 264 263 263 264 265 266 267 268 268 270 272 274 275 276 277 278
245 247 248 250 251 252 253 255 256 257 258 261 263 264 266 265 265 265 265 264 263 262 261 262 262 264 265 267 267 267 266 266 266 267 269 270 271 272 274 276 277 278 278 279
243 247 250 252 254 255 257 258 259 259 259 260 263 265 266 265 266 267 267 265 263 263 263 264 265 266 267 267 267 268 268 268 268 269 271 272 273 274 275 277 278 279 279 280
243 246 248 251 254 256 257 258 259 259 259 260 263 265 265 265 265 266 266 265 264 264 265 266 267 268 269 270 270 269 269 270 271 272 272 274 275 276 277 278 279 280 280 281
Height
5839 5841 5842 5844 5846 5848 5849 5851 5854 5856 5858 5860 5862 5864 5866 5868 5870 5872 5874 5876 5878 5880 5881 5882 5883 5885 5885 5886 5886 5887 5887 5887 5887 5887 5887 5886 5886 5885 5884 5883 5881 5880 5879 5877
5841 5842 5843 5844 5846 5847 5849 5851 5853 5855 5857 5859 5861 5863 5865 5867 5869 5871 5873 5874 5877 5878 5880 5881 5882 5884 5885 5885 5885 5886 5886 5886 5886 5886 5886 5886 5885 5885 5884 5883 5881 5880 5879 5877
5842 5843 5844 5845 5846 5848 5850 5851 5853 5854 5856 5858 5860 5863 5864 5866 5868 5869 5871 5873 5875 5876 5878 5880 5881 5882 5883 5884 5884 5884 5885 5885 5885 5885 5885 5885 5884 5884 5883 5882 5881 5880 5879 5877
5843 5844 5844 5846 5847 5848 5850 5851 5853 5854 5856 5858 5860 5862 5863 5864 5866 5868 5869 5871 5873 5874 5876 5878 5879 5881 5881 5882 5883 5883 5883 5883 5883 5883 5883 5883 5883 5883 5882 5882 5881 5880 5878 5877
5844 5844 5845 5846 5847 5848 5850 5851 5853 5854 5856 5858 5859 5861 5863 5863 5864 5866 5868 5869 5871 5873 5874 5876 5878 5879 5880 5880 5881 5881 5882 5882 5882 5882 5882 5882 5881 5881 5881 5880 5880 5879 5878 5877
5844 5845 5846 5847 5848 5849 5850 5852 5853 5854 5856 5858 5859 5860 5861 5862 5863 5864 5866 5867 5869 5871 5873 5874 5876 5877 5878 5878 5879 5879 5880 5880 5880 5880 5880 5880 5880 5879 5879 5879 5878 5877 5877 5876
5845 5845 5846 5847 5848 5849 5851 5853 5854 5854 5855 5857 5858 5859 5860 5861 5862 5863 5864 5866 5867 5869 5871 5872 5874 5875 5876 5876 5877 5877 5878 5878 5878 5879 5879 5878 5878 5878 5877 5877 5876 5876 5875 5874
5845 5846 5846 5847 5848 5849 5850 5853 5855 5855 5855 5856 5857 5857 5859 5860 5860 5861 5862 5864 5866 5868 5869 5870 5872 5873 5874 5874 5875 5875 5875 5876 5876 5877 5877 5876 5876 5876 5876 5875 5874 5874 5873 5872
5845 5846 5846 5847 5848 5850 5850 5852 5853 5855 5855 5856 5856 5857 5858 5858 5859 5860 5861 5863 5864 5866 5867 5868 5870 5871 5872 5872 5873 5873 5873 5874 5874 5874 5874 5874 5874 5873 5873 5873 5872 5871 5870 5870
5845 5846 5846 5847 5848 5849 5851 5851 5853 5854 5854 5855 5856 5856 5858 5858 5858 5859 5860 5861 5862 5864 5865 5866 5868 5869 5869 5870 5871 5871 5871 5871 5872 5872 5872 5872 5871 5870 5870 5869 5868 5868 5867 5867
5845 5846 5847 5847 5848 5848 5850 5851 5852 5853 5853 5854 5855 5858 5857 5857 5857 5858 5859 5860 5861 5862 5863 5864 5865 5866 5867 5868 5869 5869 5869 5869 5869 5869 5869 5869 5868 5867 5866 5865 5864 5864 5864 5864
5844 5845 5845 5846 5847 5847 5848 5850 5851 5852 5853 5853 5854 5858 5855 5856 5857 5857 5858 5859 5860 5860 5861 5862 5863 5864 5865 5866 5866 5866 5867 5867 5867 5867 5867 5866 5865 5865 5864 5862 5861 5861 5862 5862
5843 5844 5845 5846 5848 5847 5847 5848 5849 5850 5851 5852 5853 5856 5854 5854 5855 5856 5856 5857 5858 5859 5860 5860 5861 5862 5863 5863 5864 5864 5864 5864 5864 5864 5864 5863 5863 5862 5861 5860 5859 5858 5859 5860
5842 5843 5844 5846 5845 5845 5846 5847 5848 5849 5850 5850 5851 5852 5853 5853 5853 5853 5854 5855 5855 5856 5857 5858 5859 5859 5860 5860 5861 5861 5862 5862 5862 5861 5861 5861 5860 5859 5859 5858 5857 5856 5857 5857
5840 5841 5842 5843 5843 5844 5845 5846 5846 5847 5848 5849 5849 5849 5851 5851 5851 5851 5852 5853 5853 5854 5855 5855 5856 5857 5857 5857 5857 5858 5858 5859 5859 5859 5858 5858 5857 5857 5856 5856 5855 5855 5855 5855
5838 5839 5840 5841 5841 5842 5843 5843 5844 5845 5845 5846 5847 5847 5848 5848 5849 5849 5850 5850 5851 5851 5852 5853 5853 5853 5854 5854 5854 5855 5855 5856 5856 5856 5856 5855 5855 5854 5853 5853 5853 5853 5853 5853
5835 5836 5838 5839 5839 5840 5841 5842 5842 5842 5843 5844 5844 5846 5845 5846 5846 5847 5847 5848 5849 5849 5849 5849 5850 5850 5850 5851 5851 5851 5852 5852 5852 5853 5852 5852 5852 5851 5851 5851 5850 5850 5850 5850
5832 5833 5834 5835 5837 5838 5841 5839 5839 5840 5840 5841 5841 5842 5842 5843 5843 5844 5844 5845 5845 5846 5846 5846 5846 5846 5847 5847 5847 5848 5848 5848 5849 5849 5849 5849 5848 5848 5847 5847 5847 5846 5846 5845
5828 5829 5830 5831 5832 5834 5836 5836 5836 5837 5837 5837 5838 5839 5839 5839 5840 5840 5840 5841 5841 5842 5842 5842 5842 5843 5843 5843 5843 5844 5844 5844 5845 5845 5845 5845 5844 5844 5844 5843 5843 5842 5841 5841
5823 5825 5826 5827 5828 5830 5833 5832 5832 5834 5833 5835 5835 5835 5835 5835 5836 5837 5837 5837 5837 5838 5838 5838 5838 5838 5839 5839 5839 5840 5840 5840 5840 5840 5840 5840 5840 5840 5839 5839 5838 5837 5836 5836
5819 5820 5821 5822 5823 5825 5828 5828 5829 5830 5831 5831 5831 5831 5832 5832 5833 5833 5833 5833 5833 5834 5834 5834 5834 5834 5835 5835 5835 5835 5835 5836 5836 5835 5835 5835 5835 5834 5834 5834 5833 5832 5831 5830
5813 5815 5816 5817 5818 5823 5823 5823 5825 5826 5826 5826 5827 5827 5828 5828 5828 5828 5828 5829 5829 5829 5829 5830 5830 5830 5830 5830 5831 5831 5831 5831 5830 5830 5830 5829 5829 5829 5828 5828 5827 5826 5825 5824
5808 5810 5811 5813 5815 5816 5816 5818 5819 5820 5821 5821 5822 5822 5823 5823 5823 5823 5824 5824 5824 5824 5825 5825 5825 5825 5825 5825 5825 5825 5826 5825 5825 5824 5824 5824 5823 5822 5822 5821 5820 5819 5818 5817
5802 5803 5805 5806 5808 5809 5811 5812 5813 5814 5815 5816 5816 5817 5817 5818 5818 5818 5819 5819 5819 5819 5819 5819 5819 5820 5820 5819 5819 5819 5819 5819 5818 5818 5818 5817 5816 5816 5815 5814 5813 5812 5810 5809
5796 5797 5798 5800 5801 5803 5804 5805 5807 5808 5809 5810 5810 5811 5811 5812 5812 5812 5812 5813 5813 5813 5813 5813 5813 5813 5813 5813 5813 5813 5812 5812 5811 5811 5810 5810 5809 5808 5807 5806 5805 5803 5802 5800
5789 5790 5792 5793 5795 5796 5798 5799 5800 5801 5802 5803 5803 5804 5804 5805 5805 5806 5806 5806 5806 5807 5807 5806 5806 5807 5806 5806 5806 5806 5805 5805 5804 5803 5803 5802 5801 5800 5798 5797 5796 5794 5792 5790